Location: Buckhorn Peak
(37.6641°N, 120.1241°W)
Time: 23:03:11
(UTC+00:00)

Altair - Pass Details

Date: 08 November 2024
Orbit: 1501 x 1683 km, 47.2° (Epoch: 03 December)

Event Time Altitude Azimuth Distance (km) Brightness Sun altitude
Rises 01:20:09 0° 300° (WNW) 4,641 10.7 -5.5°
Reaches altitude 10° 01:23:10 10° 302° (WNW) 3,666 10.1 -6.1°
Maximum altitude 01:32:26 80° 30° (NNE) 1,558 7.5 -7.8°
Drops below altitude 10° 01:41:59 10° 117° (ESE) 3,771 9.1 -9.7°
Sets 01:45:07 0° 119° (ESE) 4,779 9.6 -10.3°
